{"data":{"norad_id":62449,"epoch":"2026-09-21T20:07:52.930848Z","epoch_age_seconds":58763,"freshness":"FRESH","line1":"1 62449U 24251T   26264.83880707  .00007801  00000+0  24182-3 0  9995","line2":"2 62449  53.1579 141.0970 0001407  86.6182 273.4981 15.34394198 97863","mean_motion":15.34394198,"eccentricity":0.0001407,"inclination_deg":53.1579,"raan_deg":141.097,"arg_perigee_deg":86.6182,"mean_anomaly_deg":273.4981,"bstar":0.00024182,"rev_number":9786,"period_min":93.84811294757,"perigee_km":461.75797638002,"apogee_km":463.6829936763,"semimajor_km":6840.8574850282,"source":"CELESTRAK","updated_at":"2026-09-22T09:00:49.583208Z"}}